[[{"header":{"parameterUnit":"m.s-1","parameterCategory":1,"la1":30.2991,"la2":30.254,"lo1":-89.0895,"lo2":-89.0444,"dy":0.0017,"dx":0.0017,"nx":28,"ny":28,"refTime":"2023-04-29T21:00:00:Z","depth":0,"parameterNumber":2,"parameterNumberName":"U-component_of_WINDS"},"data":[0,0,0,0,0,0,0,0,0,0,0,0,0,0,0,0,0,0,0,0,0,0,0,0,0,0,0,0,0,0,0,0,0,0,0,0,0,0,0,0,0,0,0,0,0,0,0,0,0,0,0,0,0,0,0,0,0,0,3.9365,3.9366,0,3.9425,3.9426,3.9427,3.9324,3.9321,3.9317,3.9314,3.9379,3.9383,3.9388,0,0,0,0,0,0,0,0,0,0,0,0,0,3.9165,3.9169,3.9365,3.9366,3.9367,3.9425,3.9426,3.9427,3.9325,3.9321,3.9317,3.9313,3.9377,3.9383,3.9389,0,0,0,0,0,0,0,0,0,0,0,0,0,3.9241,3.9171,3.9365,3.9323,3.932,3.9425,3.9426,3.9427,3.9326,3.9321,3.9315,3.9311,3.9375,3.9382,3.939,3.954,0,0,3.9412,3.9415,0,0,0,0,0,0,0,0,3.9237,3.9249,3.9328,3.9326,3.9323,3.9362,3.9379,3.9465,3.9327,3.9324,3.9314,3.9308,3.9377,3.9384,3.9407,3.9543,3.9546,3.9413,3.9417,3.9421,3.9423,0,0,0,0,0,0,0,3.9232,3.9246,3.9389,3.933,3.9326,3.9302,3.9307,3.9395,3.9379,3.9324,3.9316,3.9325,3.9375,3.94,3.9408,3.9547,3.9413,3.9419,3.9424,3.9427,3.981,3.9816,0,0,0,0,0,0,3.9232,3.9242,3.9387,3.9391,3.9266,3.931,3.9315,3.9355,3.9378,3.9376,3.9329,3.932,3.939,3.9399,3.941,3.9588,3.9421,3.9428,3.9432,3.9805,3.9811,3.9818,0,0,0,0,0,0,3.9228,3.9245,3.9385,3.9315,3.933,3.9319,3.9364,3.9359,3.9384,3.9382,3.9379,3.9358,3.9386,3.9399,3.9508,3.9589,3.9431,3.9438,3.9798,3.9807,3.9815,3.9946,0,0,0,0,0,0,3.9222,3.9245,3.9301,3.9316,3.9334,3.9482,3.9369,3.9364,3.9397,3.9385,3.9408,3.9407,3.9383,3.9498,3.9516,3.9596,3.9443,3.979,3.9802,3.9812,3.9934,3.9958,3.9978,0,0,0,0,0,3.9216,3.9336,3.9304,3.9322,3.9404,3.9487,3.9497,3.9467,3.9403,3.9461,3.946,3.9406,3.9577,3.951,3.9529,3.9613,3.9785,3.9799,3.9811,3.9925,3.9953,3.9978,0,0,0,0,0,0,3.9331,3.9337,3.9302,3.9431,3.9459,3.9469,3.954,3.9498,3.9545,3.9532,3.9493,3.9499,3.9617,3.9626,3.9551,3.9761,3.9671,3.9688,3.9751,3.9778,3.9799,3.9795,3.945,0,0,0,0,0,3.9371,3.9436,3.9439,3.9552,3.9568,3.9552,3.9587,3.9561,3.9589,3.96,3.9607,3.9637,3.9697,3.9738,3.9793,3.9935,3.9939,4.0003,4.0024,4.0042,4.0058,4.0135,4.0163,3.986,3.986,3.986,0,0,3.9455,3.9467,3.951,3.9576,3.9594,3.9664,3.9563,3.964,3.9692,3.9612,3.9715,3.9722,3.9753,3.9879,3.9935,3.989,4.0143,4.0059,4.0073,4.0079,4.0151,4.018,4.0205,3.9869,3.9867,3.9866,0,0,3.9644,3.9659,3.9755,3.9776,3.9806,3.9794,3.9818,3.9835,3.9836,3.9939,3.9881,3.9942,4.0047,4.0071,4.0098,4.0297,4.025,4.0316,4.0431,4.0506,4.053,4.0551,4.0623,4.065,4.0332,4.0332,4.0332,0,3.9745,3.9846,3.9811,3.9893,3.9924,3.9854,3.9952,3.9975,4.0021,4.0045,3.9993,4.0124,4.014,4.0271,4.032,4.0344,4.037,4.0314,4.0529,4.055,4.0569,4.0638,4.0665,4.034,4.0339,4.0338,4.0338,0,3.997,4.0041,4.0116,4.0162,4.0201,4.0291,4.027,4.0315,4.0286,4.028,4.0387,4.0404,4.0462,4.0491,4.0464,4.062,4.0591,4.0535,4.0444,4.0607,4.067,4.0696,4.0351,4.0349,4.0346,4.0344,0,0,4.0232,4.0258,4.0286,4.0307,4.0335,4.039,4.0477,4.0533,4.0573,4.0607,4.068,4.0771,4.072,4.075,4.0725,4.0791,4.095,4.0727,4.0728,4.0769,4.1124,4.1166,4.1197,4.0918,4.0923,4.0927,4.1121,0,4.0421,4.057,4.0541,4.0688,4.0754,4.069,4.0766,4.0792,4.079,4.0846,4.0844,4.0909,4.0836,4.0854,4.0917,4.0917,4.102,4.0902,4.0987,4.0991,4.0982,4.123,4.1274,4.1456,4.1146,4.115,4.1153,0,4.066,4.0704,4.0857,4.0875,4.0902,4.0971,4.102,4.1075,4.1104,4.1098,4.1132,4.1095,4.1183,4.1091,4.1212,4.1133,4.1166,4.1171,4.1178,4.1185,4.1082,4.1244,4.1514,4.1542,4.1192,4.1189,4.1186,0,4.0838,4.0934,4.1039,4.1058,4.1082,4.1132,4.1145,4.1168,4.1204,4.1248,4.1271,4.1325,4.1355,4.1398,4.1377,4.1311,4.1503,4.1409,4.1501,4.1502,4.1545,4.1543,4.1824,4.1565,4.1565,4.1564,4.1564,0,4.1051,4.1148,4.1119,4.1183,4.129,4.1256,4.1363,4.1368,4.139,4.1455,4.1402,4.1465,4.1433,4.1493,4.1477,4.1581,4.1595,4.1593,4.1588,4.1598,4.1599,4.162,4.1607,4.1572,4.157,4.1569,4.1567,0,4.1268,4.1252,4.1362,4.1375,4.1381,4.1459,4.1471,4.1532,4.1525,4.1609,4.1626,4.1617,4.1686,4.1668,4.1743,4.1733,4.1864,4.1842,4.1854,4.1849,4.1943,4.1935,4.2249,4.2289,4.2004,4.2006,4.2009,0,4.1405,4.1478,4.1499,4.1539,4.1555,4.1619,4.1656,4.1626,4.1666,4.1705,4.1762,4.1825,4.1874,4.1987,4.1988,4.2045,4.2025,4.2131,4.2034,4.2042,4.2028,4.2024,4.2032,4.2151,4.2154,4.2157,4.2159,0,4.1652,4.164,4.1694,4.1747,4.1792,4.1831,4.1866,4.1902,4.1875,4.1923,4.1992,4.203,4.2107,4.2171,4.2224,4.2238,4.2195,4.219,4.2214,4.2226,4.223,4.223,4.1908,4.2183,4.2181,4.2179,4.2177,4.2177,4.1833,4.1895,4.192,4.1983,4.2006,4.204,4.2098,4.2099,4.2156,4.2215,4.2194,4.2274,4.2302,4.2368,4.2389,4.2451,4.2411,4.2447,4.2456,4.2465,4.2477,4.222,4.2461,4.246,4.2459,4.2459,4.2458,0,4.2077,4.209,4.2148,4.2199,4.2248,4.2203,4.2239,4.2284,4.2355,4.2384,4.2434,4.2514,4.2576,4.2582,4.2641,4.269,4.2672,4.2707,4.2703,4.2708,4.2509,4.2482,4.2721,4.2721,4.2721,4.2721,4.2721,4.2721,4.221,4.2313,4.2306,4.242,4.2432,4.2509,4.2534,4.2566,4.2589,4.2681,4.2733,4.2736,4.2756,4.2816,4.2872,4.2872,4.2897,4.294,4.2933,4.2748,4.2721,4.2697,4.2671,4.2945,4.2945,4.3126,4.3127,4.3129]},{"header":{"parameterUnit":"m.s-1","parameterCategory":1,"la1":30.2991,"la2":30.254,"lo1":-89.0895,"lo2":-89.0444,"dy":0.0017,"dx":0.0017,"nx":28,"ny":28,"refTime":"2023-04-29T21:00:00:Z","depth":0,"parameterNumber":3,"parameterNumberName":"V-component_of_WINDS"},"data":[0,0,0,0,0,0,0,0,0,0,0,0,0,0,0,0,0,0,0,0,0,0,0,0,0,0,0,0,0,0,0,0,0,0,0,0,0,0,0,0,0,0,0,0,0,0,0,0,0,0,0,0,0,0,0,0,0,0,1.2423,1.2423,0,1.2456,1.2456,1.2457,1.2447,1.2446,1.2445,1.2445,1.2477,1.2479,1.248,0,0,0,0,0,0,0,0,0,0,0,0,0,1.2349,1.235,1.2423,1.2423,1.2423,1.2456,1.2456,1.2457,1.2447,1.2446,1.2445,1.2444,1.2477,1.2478,1.248,0,0,0,0,0,0,0,0,0,0,0,0,0,1.2381,1.2351,1.2423,1.2422,1.2423,1.2456,1.2456,1.2457,1.2447,1.2446,1.2445,1.2444,1.2476,1.2478,1.2481,1.2515,0,0,1.2487,1.2488,0,0,0,0,0,0,0,0,1.2379,1.2384,1.2422,1.2422,1.2423,1.2446,1.2442,1.2476,1.2447,1.2438,1.2445,1.2443,1.2468,1.247,1.2479,1.2517,1.2518,1.2488,1.2489,1.249,1.2491,0,0,0,0,0,0,0,1.2377,1.2383,1.2436,1.2423,1.2423,1.242,1.2424,1.2449,1.2458,1.2438,1.2438,1.2442,1.2468,1.2477,1.248,1.2519,1.2488,1.249,1.2491,1.2492,1.2586,1.2588,0,0,0,0,0,0,1.2375,1.2381,1.2435,1.2437,1.2398,1.2422,1.2426,1.244,1.2458,1.2459,1.2443,1.2441,1.2473,1.2477,1.2481,1.2523,1.249,1.2492,1.2493,1.2585,1.2587,1.2588,0,0,0,0,0,0,1.2373,1.238,1.2433,1.2409,1.2415,1.2425,1.244,1.2441,1.245,1.2461,1.2462,1.2451,1.2473,1.2478,1.2507,1.2524,1.2493,1.2495,1.2584,1.2586,1.2587,1.2607,0,0,0,0,0,0,1.2371,1.2379,1.2393,1.2409,1.2417,1.2459,1.2441,1.2442,1.2454,1.2453,1.2469,1.247,1.2472,1.2503,1.2509,1.2526,1.2497,1.2582,1.2585,1.2587,1.2605,1.2609,1.2612,0,0,0,0,0,1.2369,1.2397,1.2394,1.24,1.2434,1.246,1.2465,1.2467,1.2456,1.2469,1.2476,1.247,1.2521,1.2507,1.2513,1.2531,1.2581,1.2584,1.2587,1.2603,1.2608,1.2612,0,0,0,0,0,0,1.2382,1.2399,1.2396,1.243,1.2444,1.2459,1.2476,1.2472,1.2489,1.2487,1.2488,1.2492,1.2522,1.2529,1.2513,1.2565,1.2549,1.2553,1.256,1.2565,1.2568,1.2566,1.2499,0,0,0,0,0,1.2389,1.241,1.2423,1.2452,1.2459,1.2466,1.2478,1.2478,1.2493,1.2498,1.2508,1.2521,1.254,1.2553,1.2571,1.2605,1.2609,1.2621,1.2625,1.2628,1.2631,1.265,1.2655,1.2596,1.2596,1.2596,0,0,1.2404,1.2415,1.2428,1.2455,1.2466,1.2487,1.2471,1.2494,1.251,1.2502,1.253,1.2537,1.2552,1.2585,1.2599,1.2591,1.2648,1.2631,1.2634,1.2635,1.2653,1.2659,1.2664,1.2598,1.2598,1.2598,0,0,1.2441,1.2452,1.2477,1.2489,1.2505,1.251,1.2516,1.2532,1.2536,1.2565,1.2559,1.2577,1.261,1.2621,1.2631,1.2672,1.2667,1.2678,1.2699,1.2717,1.2722,1.2726,1.274,1.2746,1.2682,1.2682,1.2682,0,1.2457,1.2489,1.2491,1.2514,1.2526,1.252,1.2546,1.2556,1.2578,1.2586,1.2577,1.2618,1.2628,1.2662,1.2673,1.2681,1.2687,1.2676,1.2721,1.2725,1.2729,1.2743,1.2748,1.2683,1.2683,1.2683,1.2682,0,1.2507,1.2529,1.2548,1.2569,1.2583,1.2607,1.2613,1.2626,1.2625,1.2631,1.266,1.2671,1.2692,1.27,1.2699,1.2734,1.2729,1.2721,1.2705,1.2736,1.2749,1.2754,1.2685,1.2684,1.2684,1.2683,0,0,1.2554,1.2577,1.2583,1.2593,1.2611,1.2628,1.2652,1.2672,1.2684,1.2699,1.2718,1.2746,1.2739,1.275,1.275,1.2766,1.2798,1.2756,1.2756,1.2763,1.2837,1.2843,1.285,1.2794,1.2795,1.2796,1.2836,0,1.2593,1.2635,1.2638,1.2676,1.2696,1.2691,1.2712,1.2725,1.273,1.2748,1.2753,1.2773,1.2762,1.2769,1.2784,1.2791,1.2813,1.2788,1.2812,1.2813,1.2809,1.2856,1.2863,1.29,1.2841,1.2842,1.2842,0,1.2644,1.2661,1.2702,1.2717,1.2725,1.2744,1.2763,1.278,1.2794,1.2797,1.281,1.2808,1.2831,1.2814,1.2847,1.283,1.284,1.2845,1.2846,1.2849,1.283,1.286,1.2912,1.2917,1.2851,1.285,1.2849,0,1.2674,1.2707,1.2736,1.2744,1.2763,1.2776,1.2784,1.2797,1.2809,1.2825,1.2833,1.2852,1.2862,1.2876,1.2879,1.2866,1.2911,1.2895,1.2914,1.2914,1.2924,1.2923,1.2978,1.293,1.293,1.293,1.293,0,1.2717,1.2742,1.2749,1.2767,1.2795,1.2797,1.2824,1.2831,1.2843,1.2861,1.2858,1.2875,1.2878,1.2895,1.2898,1.2924,1.2929,1.2931,1.2931,1.2932,1.2931,1.2938,1.2936,1.2931,1.2931,1.2931,1.2931,0,1.2756,1.2762,1.2792,1.2807,1.2811,1.2831,1.2844,1.286,1.2865,1.2889,1.2894,1.2902,1.2923,1.2927,1.2951,1.2952,1.2984,1.2982,1.2979,1.2979,1.2998,1.2996,1.3059,1.3067,1.3014,1.3015,1.3015,0,1.2783,1.2802,1.2819,1.2831,1.284,1.286,1.2873,1.2875,1.2888,1.2906,1.292,1.2941,1.2957,1.299,1.2998,1.3016,1.3014,1.3035,1.3017,1.3016,1.3014,1.3013,1.3015,1.3038,1.3039,1.3039,1.304,0,1.283,1.2832,1.2851,1.287,1.2885,1.29,1.2915,1.2925,1.293,1.2944,1.2966,1.2979,1.3004,1.3024,1.3042,1.305,1.3045,1.3045,1.3051,1.3051,1.3049,1.305,1.2989,1.3044,1.3043,1.3043,1.3043,1.3043,1.2864,1.288,1.2895,1.2916,1.2927,1.2941,1.2957,1.2964,1.2982,1.3003,1.3004,1.3027,1.304,1.3065,1.3074,1.3091,1.3085,1.3093,1.3095,1.3096,1.3098,1.3046,1.3095,1.3095,1.3094,1.3094,1.3094,0,1.2911,1.292,1.2939,1.296,1.2976,1.2971,1.2987,1.3,1.3021,1.3034,1.3051,1.3075,1.3094,1.3104,1.3123,1.3135,1.3133,1.314,1.3139,1.3141,1.3103,1.3097,1.3141,1.3141,1.3141,1.3141,1.3141,1.3141,1.2937,1.2965,1.2969,1.3003,1.3012,1.3035,1.3044,1.3057,1.3067,1.3095,1.3111,1.3117,1.3129,1.3148,1.3166,1.3168,1.3175,1.3182,1.3183,1.3148,1.3143,1.3139,1.3133,1.3184,1.3184,1.322,1.322,1.322]}]]